Temp_Advection
nan nan nan nan nan nan nan nan nan nan nan nan nan nan nan nan nan nan nan nan nan nan nan nan nan nan nan nan nan nan nan nan nan nan nan nan nan nan nan nan nan nan nan nan
nan -1 -1 -0 -0 -0 -0 -0 0 -1 -0 0 -0 -0 -0 0 0 -0 -0 -0 -0 -0 -0 -0 -0 -0 -0 -0 -0 -0 -1 -0 -0 -0 -0 -1 -1 -0 0 -0 0 0 -0 nan
nan -1 -0 -0 -0 -0 -0 -0 0 0 0 0 -0 0 0 0 0 -0 -0 -0 -0 0 0 0 0 -0 -0 -0 -0 -0 -0 -0 -0 -0 0 -0 -0 -0 -0 0 0 -0 -0 nan
nan -0 0 -1 -0 0 -0 -0 -0 -0 0 0 0 0 0 0 0 0 -0 0 0 0 0 0 0 -0 0 -0 -0 -0 0 -0 -0 -0 0 0 0 0 0 -0 -0 -0 0 nan
nan -0 -1 -1 -0 -0 -0 0 0 -0 0 0 -0 1 0 0 -0 0 -0 -0 0 0 0 0 0 -0 -0 -0 -0 -0 -0 -0 -0 -0 -0 0 0 0 0 0 -0 0 0 nan
nan 0 -0 -1 -0 -0 -1 0 0 -0 -0 0 -0 -0 -0 -0 0 0 0 0 0 0 0 -0 -0 0 -0 0 -0 -0 -0 -0 -0 -0 -0 -0 -0 0 -0 -0 -0 0 0 nan
nan 0 -1 -1 -1 0 -0 -0 -0 0 -0 -0 0 -1 -0 0 0 -0 -0 -0 -0 0 -0 -0 -0 -0 0 -0 -0 -0 -0 -0 0 -0 -0 -0 -0 -0 0 -0 -0 0 0 nan
nan 0 -1 -1 -0 -0 -0 -1 0 0 0 0 -0 0 0 0 0 -0 0 0 -0 0 -0 -0 -0 -0 -0 -0 -0 -0 -0 -0 0 0 -0 -0 -0 -0 -0 0 0 -0 -0 nan
nan -1 -1 -1 -0 -1 0 0 0 0 0 0 0 0 0 0 0 0 0 -0 -0 -0 -0 -0 -0 -0 -0 -0 -0 -0 -0 -0 0 0 0 -0 -0 -0 -0 -0 -0 -0 -0 nan
nan -0 -1 -0 0 1 1 1 0 0 0 0 0 0 0 0 0 0 -0 -0 -0 -0 -0 -0 0 0 -0 -0 -0 -0 -0 -0 0 0 -0 0 0 -0 -0 -0 -0 -0 -0 nan
nan -0 0 0 0 1 1 0 0 0 0 0 0 0 0 0 0 -0 -0 -0 -0 -0 -0 -0 -0 0 0 0 -0 -0 -0 -0 -0 0 -0 -0 -0 -0 -0 -0 -0 -0 -0 nan
nan -1 0 -0 1 1 1 0 0 0 0 0 0 0 0 -0 -0 -0 -0 -0 0 -0 -0 -0 -0 0 0 0 -0 -1 0 0 -0 -0 -0 -0 0 -0 -0 -0 -0 -0 -0 nan
nan -0 0 1 1 1 0 0 0 0 0 0 0 0 -0 -0 -0 -0 0 -0 -0 -0 0 0 0 0 0 0 -0 -0 -0 0 0 0 -0 0 0 0 0 -0 -0 0 0 nan
nan 1 0 1 1 0 0 0 0 0 0 0 -0 -0 0 -0 0 0 0 -0 -0 -0 0 0 0 0 -0 0 -0 -0 -0 0 0 0 0 0 0 0 0 -0 -0 -0 0 nan
nan 1 0 1 0 1 1 1 0 0 0 0 -0 -0 -0 0 0 -0 0 -0 -0 -0 0 0 1 0 0 -0 0 -0 -0 0 -0 0 0 0 0 0 0 0 -0 -0 0 nan
nan 1 1 1 1 1 0 0 0 0 0 -0 -0 0 0 0 0 0 0 -0 -0 -1 -0 -0 0 -0 0 -0 -0 0 0 -0 -0 0 0 0 0 0 0 0 0 0 0 nan
nan 1 1 1 1 1 1 0 0 -0 0 0 0 0 0 0 0 0 0 0 0 0 -1 -1 -0 -0 -0 0 -0 0 0 0 0 0 0 -0 -0 0 0 0 0 0 0 nan
nan 1 1 0 1 0 0 -0 -0 -0 0 0 0 0 0 0 0 0 -0 -0 -0 1 0 -0 -0 -0 -0 0 -0 0 0 0 0 1 0 0 -0 -0 0 0 0 0 0 nan
nan -0 1 0 -0 0 -0 -0 0 0 0 0 0 0 0 0 0 0 0 0 -0 -1 1 0 -0 -0 -0 -0 0 -0 0 0 0 1 1 0 -0 -0 0 0 0 0 0 nan
nan 0 -0 0 0 -0 -0 -0 -0 -0 0 0 0 0 0 0 0 0 0 0 1 0 -0 -0 -0 -0 -0 -0 -0 0 0 0 0 0 1 0 -0 -0 -0 0 0 0 0 nan
nan -0 -0 -0 -0 -0 -0 -0 -0 -0 0 0 0 -0 0 0 0 0 0 0 1 1 0 -0 -0 -0 -0 -0 -0 -0 0 0 0 0 1 1 0 -0 -0 0 0 0 0 nan
nan -0 -0 -0 -0 -0 -0 -0 -0 -0 -0 -0 0 0 -0 0 0 0 0 0 0 1 0 0 0 -0 -0 -0 -0 -0 0 0 0 0 0 1 0 0 0 0 0 0 0 nan
nan -0 -0 -0 -0 -0 -0 -0 -0 -0 -0 -0 -0 -0 0 0 0 -0 -0 0 0 0 0 0 0 -0 -0 -0 -0 0 0 0 -0 0 0 0 1 1 0 0 0 0 0 nan
nan -0 -0 -0 -0 -0 -0 -0 -0 -0 -0 0 -0 -0 -0 0 0 0 -0 -0 -0 -0 -0 -0 0 -0 -0 -0 -0 -0 -0 0 0 -0 0 0 0 1 1 1 0 0 0 nan
nan -0 -0 -0 -0 -0 -0 -0 -0 -0 -0 0 0 0 0 0 0 0 0 -0 -0 -0 -0 -0 -0 -0 -0 -0 -0 -0 -0 -0 -0 -0 -0 0 0 0 1 1 1 0 0 nan
nan -0 -0 -0 -0 -0 -0 -0 -0 -0 -0 -0 0 1 0 0 0 0 0 0 0 -0 -0 -0 -0 -0 -0 -0 -0 -0 -1 -1 -1 -0 -0 -0 -0 0 0 1 1 1 1 nan
nan nan nan nan nan nan nan nan nan nan nan nan nan nan nan nan nan nan nan nan nan nan nan nan nan nan nan nan nan nan nan nan nan nan nan nan nan nan nan nan nan nan nan nan
Wind_Speed
2 3 1 1 2 1 4 4 5 7 7 6 6 8 16 18 13 6 5 7 9 5 2 6 9 13 17 20 22 26 30 34 32 35 31 29 27 29 25 16 10 8 13 18
0 5 6 3 5 5 4 4 4 9 5 6 12 19 16 12 9 6 5 5 3 5 1 5 11 14 16 21 25 29 32 32 31 32 33 31 31 27 16 12 8 10 17 19
3 5 6 5 4 3 1 4 3 6 6 9 6 13 13 10 6 2 2 2 4 3 4 11 14 17 21 25 27 30 29 31 34 35 36 31 25 16 18 12 18 12 17 19
2 4 1 5 5 4 9 3 10 11 7 9 13 12 10 5 0 2 0 3 6 5 11 15 16 19 21 25 27 30 31 33 32 33 33 26 20 23 19 13 12 14 16 17
3 3 5 6 4 6 5 3 4 9 10 9 16 13 8 2 1 1 3 8 10 11 14 14 16 18 24 28 28 29 31 32 30 30 29 21 17 17 13 17 10 14 15 15
3 4 6 6 2 9 8 4 16 14 14 11 13 3 5 5 3 4 6 8 9 13 12 15 18 22 24 19 23 29 31 29 30 31 23 20 16 17 13 8 15 13 13 15
3 2 8 7 11 4 5 7 23 19 15 14 6 8 3 4 2 4 8 7 8 10 10 15 21 18 17 23 28 28 25 28 32 27 19 14 11 8 11 16 14 11 12 18
3 2 7 13 6 7 6 11 21 16 13 12 7 6 5 4 2 3 2 6 9 10 16 19 16 20 26 28 25 25 28 32 26 18 14 12 15 17 14 9 8 11 15 20
9 7 6 18 11 15 12 14 17 15 10 9 8 6 6 3 3 4 6 9 14 19 22 21 22 27 24 26 26 28 32 25 21 17 14 13 11 12 11 9 11 16 19 20
3 6 13 13 14 13 15 12 13 13 10 9 7 6 6 5 3 5 11 16 21 24 26 27 27 24 23 27 31 33 25 22 20 14 15 14 11 12 10 11 15 17 18 16
4 4 1 7 16 16 13 11 12 7 9 9 9 8 6 3 5 10 16 21 23 24 26 26 26 28 30 32 32 25 18 19 16 13 13 13 10 10 13 15 17 16 13 14
7 9 11 11 16 18 16 14 12 14 12 12 12 9 2 5 12 18 21 23 24 25 26 27 29 31 32 26 24 20 18 16 13 13 12 10 12 14 16 17 13 11 13 14
15 18 18 15 15 17 13 13 15 18 17 13 8 1 5 15 19 21 21 22 23 25 27 28 30 31 29 21 26 22 23 16 11 11 12 11 14 17 19 9 8 10 13 14
20 15 9 18 13 13 15 18 19 17 12 7 2 6 14 20 21 20 21 22 24 26 28 30 31 28 23 20 22 22 14 11 8 13 15 15 14 14 12 13 13 12 12 13
20 20 14 15 13 19 22 18 16 12 7 1 6 14 21 20 19 20 21 22 26 28 30 31 27 21 19 19 20 13 11 11 12 14 14 16 17 14 11 13 11 12 13 12
19 14 17 20 21 21 17 12 12 6 1 7 15 19 18 18 20 21 20 24 29 32 31 28 24 18 19 20 20 13 11 14 14 12 15 17 16 13 12 13 12 13 11 11
21 19 21 19 18 17 14 9 2 3 9 14 17 16 16 19 21 20 22 27 31 29 26 22 18 19 20 20 20 16 12 13 14 16 19 20 15 14 13 12 11 8 11 11
15 20 20 20 18 14 4 3 4 10 15 17 16 15 17 20 20 22 25 29 30 27 22 17 20 19 21 19 19 16 12 15 17 21 16 15 12 13 13 12 11 10 11 11
17 19 18 14 6 5 1 7 12 14 14 13 14 16 18 18 19 22 24 27 27 26 25 23 20 20 21 20 20 18 15 15 15 15 14 18 14 12 12 12 12 11 11 11
18 9 8 6 1 5 9 11 13 14 12 13 16 18 17 14 17 20 24 27 25 25 26 25 22 28 23 23 26 19 18 15 14 13 13 14 12 12 13 14 14 15 12 13
10 6 1 5 11 12 12 14 14 14 14 16 19 17 14 15 17 19 24 30 28 22 25 24 26 26 22 25 19 16 19 18 17 17 16 18 18 17 15 16 16 17 16 16
3 6 9 14 14 14 14 14 15 15 15 14 13 13 17 19 21 23 25 29 28 24 26 27 27 26 23 22 18 16 18 20 21 21 20 21 24 21 19 18 19 17 19 17
8 11 13 15 16 15 15 12 12 13 15 15 17 17 20 22 23 25 32 31 26 26 28 29 27 26 23 20 18 19 21 22 24 23 22 22 23 24 21 21 21 21 20 18
10 13 15 13 14 15 15 13 13 14 16 17 17 18 21 23 25 25 26 31 26 23 23 24 24 22 22 20 19 20 24 27 28 30 28 27 26 24 23 23 23 23 22 22
11 12 13 13 13 15 17 18 19 20 20 21 22 21 20 21 25 27 29 23 22 22 23 21 20 19 20 19 20 22 23 25 28 31 32 32 34 31 27 23 23 26 26 24
13 13 15 16 18 19 20 22 23 22 23 25 26 23 22 23 23 24 24 22 22 22 22 21 20 19 21 22 23 22 23 26 26 26 27 28 30 30 31 29 25 24 26 28
14 17 19 22 20 23 24 23 22 23 24 28 29 27 26 25 26 24 23 19 22 20 19 20 19 18 18 19 22 24 26 27 28 29 29 29 29 29 28 28 25 22 22 23
Wind_Direction
67 29 359 256 109 87 194 200 165 242 209 147 144 137 128 124 118 99 48 9 6 21 25 348 344 334 332 331 330 329 332 333 334 333 335 334 325 317 311 313 323 282 299 315
29 11 18 322 309 269 235 212 234 107 70 104 108 123 126 130 119 95 39 27 54 349 334 344 331 331 330 328 330 335 335 334 334 336 336 334 329 318 294 304 266 262 303 309
256 5 352 357 225 226 128 13 226 189 170 141 128 140 151 150 141 106 61 47 345 335 335 327 326 324 325 328 332 334 335 337 336 335 336 333 330 314 305 290 290 315 304 318
201 26 32 248 305 175 109 76 108 105 130 137 157 158 155 151 149 169 76 328 326 319 324 320 317 318 324 329 332 332 334 335 333 333 334 329 310 309 289 300 314 302 315 308
129 192 297 312 172 162 164 210 182 141 150 138 161 155 178 177 70 218 309 326 312 310 316 314 318 323 325 323 325 326 331 333 330 333 332 327 322 333 327 315 294 308 306 300
145 137 219 234 217 130 88 285 185 170 168 165 158 167 236 211 268 249 310 312 307 315 315 319 319 319 320 313 320 327 331 330 330 330 325 315 311 312 314 302 308 313 302 315
146 215 287 240 237 146 104 238 176 183 179 173 191 214 211 219 229 305 325 331 326 320 322 324 325 322 313 319 324 329 327 327 327 321 317 318 321 333 308 311 304 303 317 329
104 93 281 194 140 166 199 166 182 190 192 193 212 216 219 222 288 323 299 305 313 315 321 328 326 316 320 323 326 326 325 326 326 321 314 308 308 310 309 303 305 319 329 331
183 211 242 189 208 213 230 203 191 193 195 202 207 227 197 205 198 269 300 314 318 324 326 324 319 322 323 324 322 321 324 326 325 320 308 310 317 321 324 313 317 326 330 332
96 240 229 225 227 224 205 214 200 199 200 192 206 197 175 181 237 300 320 327 328 325 322 323 325 328 323 319 316 316 313 318 321 314 313 311 305 318 313 312 321 328 332 336
256 277 131 212 212 209 201 191 178 204 213 205 191 184 222 233 312 329 331 330 326 323 323 325 326 323 320 314 313 314 302 307 315 314 319 312 316 310 307 315 324 330 336 340
242 222 244 248 225 208 200 199 205 202 188 178 196 190 189 333 335 332 329 324 322 323 324 324 324 323 324 322 323 313 291 284 300 312 326 322 313 307 312 318 325 335 332 335
254 276 261 267 206 190 202 203 205 192 180 175 156 134 345 336 330 323 319 321 323 324 324 323 322 321 328 322 316 309 292 288 286 307 319 322 307 303 315 332 328 321 322 333
259 242 188 179 192 200 194 169 164 164 164 164 136 338 329 325 320 319 319 320 318 319 322 322 322 322 329 320 311 309 296 286 292 302 297 305 318 308 309 317 324 325 322 330
247 221 241 202 172 174 164 165 158 153 146 146 332 325 318 314 316 317 318 316 315 317 321 323 322 327 327 321 316 313 299 288 288 293 287 305 322 312 301 310 311 316 315 323
209 194 162 164 165 159 170 180 187 156 270 316 315 310 309 312 314 314 314 314 318 320 321 325 324 331 327 324 315 303 289 287 288 288 289 304 310 300 300 303 308 308 308 319
174 172 168 153 154 160 162 139 114 307 310 310 306 303 306 312 313 312 313 317 318 317 321 326 328 327 321 317 310 302 269 288 289 293 296 299 291 293 296 304 306 301 305 311
191 167 158 155 166 148 146 227 312 308 306 303 300 300 308 312 313 318 321 321 321 320 328 330 323 316 318 317 315 300 263 272 280 295 289 297 274 280 285 298 302 299 304 305
144 135 129 136 150 175 262 312 306 306 305 300 296 302 308 312 315 319 324 326 327 330 336 328 316 316 310 308 312 294 276 286 284 285 281 290 287 283 281 283 295 293 299 297
119 127 121 135 47 327 317 312 312 314 312 302 303 307 307 312 317 321 331 333 331 325 321 323 312 311 308 300 305 281 268 277 284 289 294 288 281 276 277 278 282 294 283 287
126 140 121 347 340 333 323 320 319 317 313 307 304 302 299 312 324 321 324 325 332 322 322 325 327 325 318 317 309 276 264 267 276 284 285 289 295 268 269 274 277 281 285 284
29 342 335 334 331 327 323 321 317 313 314 312 309 301 306 308 314 316 318 323 325 324 321 322 322 323 317 316 297 279 266 269 274 277 281 285 285 294 264 267 269 270 278 277
321 318 322 327 325 325 326 327 322 315 308 305 304 297 295 299 305 312 318 324 321 318 314 314 316 318 315 313 297 281 276 274 276 282 282 283 283 281 281 260 262 268 273 275
314 318 320 323 323 323 325 327 327 324 320 321 315 308 303 299 298 309 314 315 316 313 314 315 313 314 315 305 304 289 279 281 282 282 282 278 277 277 273 269 264 266 269 273
336 332 329 328 326 325 322 321 315 313 310 307 306 307 305 296 303 312 315 317 315 314 315 316 315 317 316 313 304 300 298 293 289 286 285 283 280 278 278 273 267 263 261 261
333 333 329 326 324 322 319 313 310 311 311 311 312 310 301 302 308 306 310 309 308 312 313 315 313 311 313 317 311 304 304 304 300 297 296 295 289 283 277 273 271 276 264 257
324 323 323 318 314 317 313 310 311 310 312 314 311 309 305 304 304 302 303 299 308 309 313 314 312 317 312 309 311 313 314 309 302 296 294 294 294 291 284 273 268 273 277 259
Height
1543 1543 1541 1539 1541 1543 1545 1548 1557 1550 1550 1550 1551 1551 1552 1552 1552 1553 1554 1554 1552 1552 1551 1549 1547 1545 1544 1541 1538 1535 1532 1528 1522 1518 1514 1511 1508 1503 1498 1496 1491 1489 1492 1489
1545 1546 1548 1544 1542 1541 1541 1538 1540 1546 1552 1549 1550 1551 1553 1553 1552 1552 1552 1552 1552 1551 1548 1545 1543 1541 1539 1537 1534 1530 1527 1523 1519 1514 1509 1505 1500 1496 1494 1491 1488 1485 1487 1484
1561 1560 1557 1560 1539 1535 1534 1537 1535 1547 1545 1549 1551 1551 1551 1551 1551 1550 1550 1549 1549 1546 1544 1541 1539 1537 1535 1533 1529 1526 1522 1518 1513 1508 1503 1499 1495 1492 1489 1488 1485 1484 1482 1479
1572 1570 1575 1538 1532 1530 1539 1540 1538 1541 1545 1547 1548 1549 1550 1550 1548 1547 1547 1546 1544 1543 1541 1539 1537 1534 1531 1527 1524 1519 1515 1512 1508 1503 1498 1494 1491 1488 1485 1484 1483 1481 1478 1476
1575 1577 1555 1536 1530 1532 1533 1543 1540 1541 1544 1545 1547 1548 1548 1547 1545 1544 1544 1542 1541 1539 1537 1535 1533 1529 1525 1522 1518 1515 1510 1506 1502 1498 1494 1490 1487 1484 1482 1480 1479 1477 1475 1472
1573 1577 1574 1538 1527 1526 1527 1546 1535 1536 1539 1540 1543 1552 1543 1542 1542 1541 1541 1539 1538 1536 1534 1532 1529 1525 1521 1517 1514 1510 1506 1501 1497 1493 1490 1486 1483 1481 1479 1477 1476 1473 1470 1468
1575 1582 1554 1529 1525 1528 1547 1540 1527 1531 1533 1536 1538 1536 1536 1538 1538 1539 1538 1536 1535 1533 1531 1528 1524 1521 1517 1513 1509 1505 1500 1496 1492 1488 1485 1482 1479 1477 1476 1475 1472 1470 1467 1464
1573 1577 1556 1520 1524 1533 1523 1520 1522 1526 1528 1530 1531 1532 1534 1535 1535 1534 1533 1532 1531 1529 1527 1524 1521 1516 1512 1508 1504 1500 1496 1492 1487 1483 1481 1479 1476 1474 1472 1470 1469 1467 1464 1461
1538 1533 1516 1515 1513 1514 1515 1516 1519 1523 1525 1527 1528 1530 1530 1531 1530 1530 1529 1528 1527 1525 1522 1519 1516 1512 1506 1502 1499 1495 1491 1487 1483 1480 1477 1475 1473 1471 1469 1467 1466 1463 1460 1457
1525 1512 1512 1512 1512 1513 1513 1515 1516 1519 1521 1522 1525 1527 1527 1527 1527 1527 1526 1524 1522 1519 1516 1513 1510 1506 1502 1497 1493 1489 1485 1483 1479 1476 1474 1472 1470 1468 1466 1465 1462 1460 1457 1454
1517 1511 1509 1509 1509 1509 1511 1513 1515 1517 1519 1520 1520 1522 1523 1524 1524 1523 1522 1519 1517 1514 1510 1507 1503 1499 1495 1490 1485 1481 1479 1478 1475 1473 1470 1468 1467 1465 1464 1461 1459 1456 1453 1451
1509 1504 1504 1502 1503 1505 1507 1509 1511 1512 1513 1517 1518 1519 1521 1521 1520 1519 1517 1514 1511 1509 1505 1501 1496 1492 1487 1483 1479 1477 1474 1472 1471 1470 1468 1465 1464 1462 1460 1458 1455 1453 1451 1448
1498 1498 1498 1498 1499 1502 1504 1506 1507 1508 1510 1513 1516 1518 1518 1517 1516 1514 1512 1509 1506 1503 1499 1494 1490 1485 1481 1477 1474 1471 1468 1467 1466 1466 1465 1463 1461 1458 1455 1454 1453 1450 1448 1446
1493 1493 1494 1495 1497 1500 1502 1503 1505 1507 1508 1511 1513 1514 1514 1513 1512 1510 1508 1505 1501 1498 1493 1489 1484 1479 1476 1472 1469 1465 1463 1463 1462 1462 1461 1459 1457 1455 1453 1451 1449 1447 1445 1444
1487 1488 1489 1492 1494 1497 1499 1502 1503 1506 1507 1509 1510 1510 1509 1509 1507 1505 1503 1501 1496 1492 1488 1483 1478 1474 1471 1467 1464 1461 1460 1459 1459 1458 1457 1455 1454 1451 1450 1448 1446 1445 1443 1441
1484 1486 1488 1490 1492 1495 1499 1502 1503 1504 1506 1506 1506 1506 1505 1504 1502 1500 1498 1494 1490 1484 1481 1476 1472 1470 1467 1463 1460 1458 1457 1456 1455 1454 1453 1452 1450 1448 1447 1445 1443 1442 1440 1439
1481 1485 1485 1487 1489 1495 1499 1502 1502 1503 1503 1503 1503 1502 1501 1499 1496 1494 1492 1488 1484 1479 1475 1471 1468 1466 1463 1459 1456 1453 1453 1452 1451 1450 1449 1447 1446 1444 1443 1442 1440 1439 1437 1436
1477 1480 1485 1490 1495 1497 1499 1500 1500 1500 1500 1499 1498 1497 1497 1494 1491 1488 1485 1481 1477 1472 1470 1467 1464 1461 1458 1455 1452 1449 1448 1447 1446 1445 1444 1442 1441 1440 1439 1438 1437 1435 1434 1433
1479 1482 1488 1493 1495 1497 1496 1496 1496 1496 1495 1494 1493 1492 1491 1489 1486 1483 1480 1476 1471 1467 1464 1462 1459 1456 1453 1450 1447 1445 1443 1442 1441 1440 1440 1438 1437 1436 1435 1434 1433 1432 1430 1429
1487 1490 1493 1495 1495 1494 1493 1493 1492 1491 1491 1489 1488 1487 1485 1484 1481 1478 1475 1471 1469 1465 1460 1456 1452 1449 1446 1443 1440 1438 1438 1437 1436 1435 1434 1433 1432 1431 1430 1430 1429 1427 1426 1425
1489 1491 1493 1493 1492 1491 1490 1489 1489 1488 1487 1485 1483 1481 1480 1479 1476 1473 1469 1464 1463 1459 1456 1451 1447 1443 1440 1436 1433 1431 1431 1431 1431 1430 1429 1428 1427 1426 1425 1425 1423 1422 1421 1420
1491 1491 1491 1491 1490 1490 1488 1487 1485 1484 1482 1481 1479 1478 1475 1473 1471 1468 1466 1462 1456 1453 1450 1446 1443 1439 1434 1431 1428 1427 1426 1426 1425 1424 1423 1422 1421 1420 1419 1418 1417 1417 1416 1415
1491 1490 1490 1489 1488 1486 1485 1484 1482 1480 1479 1477 1475 1473 1470 1467 1465 1461 1456 1454 1450 1447 1444 1440 1437 1433 1429 1426 1423 1422 1421 1420 1419 1417 1416 1415 1414 1413 1411 1411 1411 1410 1409 1408
1489 1488 1487 1486 1485 1484 1482 1481 1479 1477 1474 1472 1470 1467 1464 1461 1459 1457 1452 1447 1444 1441 1438 1435 1431 1428 1424 1421 1418 1416 1415 1413 1412 1410 1409 1407 1406 1404 1403 1403 1403 1403 1402 1402
1487 1486 1485 1484 1483 1481 1478 1476 1473 1471 1468 1466 1464 1461 1459 1456 1453 1449 1445 1442 1439 1436 1432 1429 1426 1423 1419 1416 1413 1410 1408 1406 1404 1402 1399 1398 1397 1395 1394 1394 1394 1394 1394 1394
1485 1484 1483 1482 1480 1477 1474 1471 1467 1465 1462 1459 1457 1455 1453 1450 1447 1444 1440 1437 1434 1431 1427 1423 1420 1417 1414 1411 1407 1404 1401 1398 1395 1393 1390 1388 1386 1385 1384 1384 1384 1384 1384 1385
1483 1482 1479 1477 1475 1472 1468 1465 1462 1459 1456 1453 1449 1448 1446 1443 1440 1437 1434 1432 1429 1425 1421 1418 1415 1411 1408 1405 1401 1398 1394 1390 1387 1384 1381 1379 1376 1375 1374 1374 1375 1375 1374 1375